Location: Arbon
(43.0005°N, 0.7472°E)
Time: 03:36:16
(UTC+00:00)

CZ-4B R/B - Pass Details

Date: 07 August 2020
Orbit: 391 x 462 km, 97.6° (Epoch: 27 September)

Event Time Altitude Azimuth Distance (km) Brightness Sun altitude
Rises 03:52:38 0° 151° (SSE) 2,425 5.1 -10.7°
Reaches altitude 10° 03:54:44 10° 144° (SE) 1,547 4.1 -10.4°
Maximum altitude 03:57:51 40° 73° (ENE) 650 2.9 -9.9°
Drops below altitude 10° 04:00:56 10° 2° (N) 1,522 4.6 -9.5°
Sets 04:02:59 0° 355° (N) 2,378 5.5 -9.2°
